FIN8KR LIPZ-EFHK

Flight info

Callsign FIN8KR
Flight time 2h 19m
Altitude 37000
Route ROKIB DCT MOBDO DCT MALUG DCT NEMAL DCT PINQI DCT ODLIV DCT RASAN DCT PENOR DCT ALAMI DCT OKEVU DCT EVADI Y370 DIVAM
Aircraft A319/M-SDE3FGHIRWY/LB1

Departure

Time 2026-05-06 18:52
Airport Venice Marco Polo Airport (LIPZ)

Arrival

Time 2026-05-06 21:12
Airport Helsinki Vantaa Airport (EFHK)
Time Latitude Longitude Altitude Speed Heading
2026-05-06 18:17 45.50696 12.34080 8 ft 0 kts 227°
2026-05-06 18:42 45.50701 12.34088 9 ft 2 kts 227°
2026-05-06 18:42 45.50711 12.34104 9 ft 2 kts 227°
2026-05-06 18:42 45.50721 12.34120 9 ft 2 kts 227°
2026-05-06 18:42 45.50731 12.34135 9 ft 1 kts 227°
2026-05-06 18:43 45.50738 12.34145 9 ft 2 kts 202°
2026-05-06 18:43 45.50753 12.34147 9 ft 2 kts 161°
2026-05-06 18:43 45.50763 12.34138 9 ft 0 kts 128°
2026-05-06 18:43 45.50767 12.34130 9 ft 1 kts 122°
2026-05-06 18:44 45.50768 12.34128 9 ft 0 kts 123°
2026-05-06 18:45 45.50767 12.34128 9 ft 0 kts 123°
2026-05-06 18:46 45.50761 12.34141 9 ft 3 kts 126°
2026-05-06 18:46 45.50737 12.34183 9 ft 7 kts 131°
2026-05-06 18:46 45.50693 12.34251 9 ft 11 kts 132°
2026-05-06 18:46 45.50630 12.34329 9 ft 12 kts 163°
2026-05-06 18:47 45.50539 12.34337 9 ft 13 kts 177°
2026-05-06 18:47 45.50441 12.34346 9 ft 14 kts 177°
2026-05-06 18:47 45.50341 12.34350 9 ft 15 kts 178°
2026-05-06 18:47 45.50247 12.34294 9 ft 15 kts 222°
2026-05-06 18:48 45.50167 12.34191 9 ft 15 kts 221°
2026-05-06 18:48 45.50082 12.34083 9 ft 16 kts 221°
2026-05-06 18:48 45.49996 12.33973 9 ft 16 kts 221°
2026-05-06 18:48 45.49910 12.33862 9 ft 14 kts 214°
2026-05-06 18:49 45.49845 12.33833 9 ft 8 kts 193°
2026-05-06 18:49 45.49786 12.33813 9 ft 9 kts 193°
2026-05-06 18:49 45.49717 12.33790 9 ft 10 kts 193°
2026-05-06 18:49 45.49643 12.33768 8 ft 9 kts 190°
2026-05-06 18:50 45.49603 12.33757 9 ft 0 kts 190°
2026-05-06 18:50 45.49598 12.33756 9 ft 1 kts 190°
2026-05-06 18:50 45.49584 12.33752 9 ft 2 kts 190°
2026-05-06 18:50 45.49547 12.33741 9 ft 8 kts 192°
2026-05-06 18:51 45.49482 12.33752 9 ft 10 kts 138°
2026-05-06 18:51 45.49475 12.33851 9 ft 11 kts 66°
2026-05-06 18:51 45.49489 12.33877 9 ft 0 kts 38°
2026-05-06 18:51 45.49497 12.33886 9 ft 5 kts 39°
2026-05-06 18:52 45.49726 12.34179 9 ft 82 kts 42°
2026-05-06 18:52 45.50328 12.34953 9 ft 147 kts 42°
2026-05-06 18:52 45.51174 12.36040 347 ft 170 kts 43°
2026-05-06 18:52 45.52038 12.37185 1048 ft 172 kts 43°
2026-05-06 18:53 45.52885 12.38355 1749 ft 174 kts 45°
2026-05-06 18:53 45.53643 12.39749 2257 ft 186 kts 71°
2026-05-06 18:53 45.53701 12.41585 2754 ft 196 kts 100°
2026-05-06 18:53 45.53444 12.43573 3265 ft 212 kts 102°
2026-05-06 18:54 45.53183 12.45669 3927 ft 219 kts 102°
2026-05-06 18:54 45.52928 12.47881 4520 ft 233 kts 101°
2026-05-06 18:54 45.52676 12.50149 5307 ft 236 kts 104°
2026-05-06 18:54 45.51980 12.52190 6106 ft 230 kts 141°
2026-05-06 18:55 45.50620 12.53174 6910 ft 223 kts 175°
2026-05-06 18:55 45.49110 12.52922 7684 ft 220 kts 202°
2026-05-06 18:55 45.47726 12.52051 8423 ft 223 kts 214°
2026-05-06 18:55 45.46684 12.50458 9210 ft 224 kts 243°
2026-05-06 18:56 45.46324 12.48296 9918 ft 234 kts 269°
2026-05-06 18:56 45.46683 12.45977 10421 ft 252 kts 283°
2026-05-06 18:56 45.47229 12.43530 10862 ft 269 kts 283°
2026-05-06 18:56 45.47826 12.40883 11277 ft 288 kts 286°
2026-05-06 18:57 45.48907 12.38363 11627 ft 316 kts 312°
2026-05-06 18:57 45.50874 12.36751 12071 ft 341 kts 342°
2026-05-06 18:57 45.53267 12.36561 12734 ft 353 kts
2026-05-06 18:57 45.55696 12.37209 13407 ft 359 kts 11°
2026-05-06 18:58 45.58128 12.37969 14037 ft 365 kts 10°
2026-05-06 18:58 45.60635 12.38674 14722 ft 369 kts
2026-05-06 18:58 45.63163 12.39292 15472 ft 370 kts
2026-05-06 18:58 45.65722 12.39851 16159 ft 373 kts
2026-05-06 18:59 45.68284 12.40369 16774 ft 377 kts
2026-05-06 18:59 45.70898 12.40875 17406 ft 380 kts
2026-05-06 18:59 45.73531 12.41372 17996 ft 385 kts
2026-05-06 18:59 45.76181 12.41867 18589 ft 388 kts
2026-05-06 19:00 45.78892 12.42373 19192 ft 392 kts
2026-05-06 19:00 45.81612 12.42878 19763 ft 396 kts
2026-05-06 19:00 45.84342 12.43386 20338 ft 399 kts
2026-05-06 19:00 45.87147 12.43908 20893 ft 403 kts
2026-05-06 19:01 45.89940 12.44428 21432 ft 407 kts
2026-05-06 19:01 45.92733 12.44949 21948 ft 411 kts
2026-05-06 19:01 45.95586 12.45482 22477 ft 415 kts
2026-05-06 19:01 45.98453 12.46016 23008 ft 418 kts
2026-05-06 19:02 46.01341 12.46557 23558 ft 420 kts
2026-05-06 19:02 46.04263 12.47105 24036 ft 424 kts
2026-05-06 19:02 46.07204 12.47659 24504 ft 428 kts
2026-05-06 19:02 46.10161 12.48212 24925 ft 432 kts
2026-05-06 19:03 46.13176 12.48779 25400 ft 435 kts
2026-05-06 19:03 46.16178 12.49343 25839 ft 438 kts
2026-05-06 19:03 46.19207 12.49914 26232 ft 442 kts
2026-05-06 19:03 46.22221 12.50481 26655 ft 444 kts
2026-05-06 19:04 46.25322 12.51066 27061 ft 447 kts
2026-05-06 19:04 46.28390 12.51646 27465 ft 449 kts
2026-05-06 19:04 46.31517 12.52239 27870 ft 452 kts
2026-05-06 19:04 46.34644 12.52829 28216 ft 455 kts
2026-05-06 19:05 46.37789 12.53429 28572 ft 458 kts
2026-05-06 19:05 46.40944 12.54027 28943 ft 460 kts
2026-05-06 19:05 46.44099 12.54628 29289 ft 463 kts
2026-05-06 19:05 46.47307 12.55244 29620 ft 466 kts
2026-05-06 19:06 46.50521 12.55856 29941 ft 469 kts
2026-05-06 19:06 46.53739 12.56820 30198 ft 479 kts 14°
2026-05-06 19:06 46.56858 12.58613 30580 ft 483 kts 20°
2026-05-06 19:06 46.59916 12.60622 30903 ft 486 kts 21°
2026-05-06 19:07 46.62980 12.62674 31252 ft 487 kts 21°
2026-05-06 19:07 46.66072 12.64714 31693 ft 486 kts 20°
2026-05-06 19:07 46.69173 12.66736 32148 ft 484 kts 21°
2026-05-06 19:07 46.72209 12.68702 32574 ft 482 kts 21°
2026-05-06 19:08 46.75252 12.70655 32991 ft 480 kts 20°
2026-05-06 19:08 46.78329 12.72618 33374 ft 480 kts 20°
2026-05-06 19:08 46.81360 12.74547 33739 ft 479 kts 20°
2026-05-06 19:08 46.84440 12.76504 34105 ft 478 kts 20°
2026-05-06 19:09 46.87491 12.78440 34438 ft 477 kts 20°
2026-05-06 19:09 46.90505 12.80356 34733 ft 477 kts 21°
2026-05-06 19:09 46.93564 12.82306 35023 ft 475 kts 20°
2026-05-06 19:09 46.96595 12.84236 35307 ft 474 kts 21°
2026-05-06 19:10 46.99600 12.86156 35572 ft 473 kts 21°
2026-05-06 19:10 47.02609 12.88079 35815 ft 473 kts 21°
2026-05-06 19:10 47.05638 12.90016 36015 ft 473 kts 21°
2026-05-06 19:10 47.08641 12.91939 36225 ft 473 kts 21°
2026-05-06 19:11 47.11630 12.93855 36416 ft 473 kts 21°
2026-05-06 19:11 47.14651 12.95784 36625 ft 473 kts 21°
2026-05-06 19:11 47.17689 12.97729 36848 ft 473 kts 21°
2026-05-06 19:12 47.23709 13.01601 36927 ft 474 kts 21°
2026-05-06 19:12 47.29763 13.05512 36939 ft 473 kts 21°
2026-05-06 19:13 47.35773 13.09401 36941 ft 473 kts 21°
2026-05-06 19:13 47.41786 13.13307 36931 ft 473 kts 21°
2026-05-06 19:14 47.47813 13.17230 36923 ft 473 kts 21°
2026-05-06 19:14 47.53851 13.21166 36914 ft 473 kts 21°
2026-05-06 19:15 47.59837 13.25081 36898 ft 474 kts 21°
2026-05-06 19:15 47.65858 13.29030 36901 ft 474 kts 21°
2026-05-06 19:16 47.71883 13.32994 36880 ft 474 kts 21°
2026-05-06 19:16 47.77902 13.36962 36866 ft 474 kts 21°
2026-05-06 19:17 47.83989 13.40982 36858 ft 482 kts 21°
2026-05-06 19:17 47.90144 13.45054 36863 ft 491 kts 22°
2026-05-06 19:18 47.96396 13.49208 36853 ft 498 kts 22°
2026-05-06 19:18 48.02776 13.53458 36843 ft 503 kts 21°
2026-05-06 19:19 48.09162 13.57723 36836 ft 504 kts 21°
2026-05-06 19:19 48.15559 13.61994 36834 ft 504 kts 21°
2026-05-06 19:20 48.21965 13.66286 36825 ft 504 kts 22°
2026-05-06 19:20 48.28341 13.70603 36828 ft 504 kts 22°
2026-05-06 19:21 48.34716 13.74924 36810 ft 504 kts 23°
2026-05-06 19:21 48.41077 13.79239 36808 ft 504 kts 22°
2026-05-06 19:22 48.47488 13.83591 36795 ft 505 kts 22°
2026-05-06 19:22 48.53879 13.87947 36792 ft 505 kts 22°
2026-05-06 19:23 48.60246 13.92298 36794 ft 504 kts 22°
2026-05-06 19:23 48.66666 13.96675 36800 ft 504 kts 21°
2026-05-06 19:24 48.73208 14.00350 36797 ft 503 kts 15°
2026-05-06 19:24 48.79904 14.03526 36796 ft 503 kts 14°
2026-05-06 19:25 48.86559 14.06656 36801 ft 503 kts 14°
2026-05-06 19:25 48.93225 14.09823 36797 ft 503 kts 14°
2026-05-06 19:26 48.99897 14.13014 36792 ft 502 kts 15°
2026-05-06 19:26 49.06576 14.16221 36773 ft 502 kts 15°
2026-05-06 19:27 49.13236 14.19423 36774 ft 503 kts 15°
2026-05-06 19:27 49.19897 14.22629 36767 ft 503 kts 15°
2026-05-06 19:28 49.26531 14.25835 36768 ft 503 kts 15°
2026-05-06 19:28 49.33202 14.29072 36776 ft 503 kts 14°
2026-05-06 19:29 49.39841 14.32309 36775 ft 502 kts 15°
2026-05-06 19:29 49.46478 14.35549 36777 ft 502 kts 15°
2026-05-06 19:30 49.53159 14.38828 36773 ft 503 kts 14°
2026-05-06 19:30 49.59810 14.42088 36768 ft 502 kts 15°
2026-05-06 19:31 49.66475 14.45371 36760 ft 503 kts 15°
2026-05-06 19:31 49.76483 14.50323 36743 ft 502 kts 15°
2026-05-06 19:32 49.83120 14.53616 36725 ft 501 kts 15°
2026-05-06 19:32 49.89781 14.56929 36761 ft 502 kts 15°
2026-05-06 19:33 49.95508 14.59792 36758 ft 502 kts 15°
2026-05-06 19:33 50.01518 14.62802 36756 ft 502 kts 15°
2026-05-06 19:34 50.08144 14.66127 36770 ft 502 kts 15°
2026-05-06 19:34 50.14761 14.69484 36765 ft 501 kts 16°
2026-05-06 19:35 50.21420 14.72844 36771 ft 503 kts 15°
2026-05-06 19:35 50.28065 14.76213 36767 ft 502 kts 15°
2026-05-06 19:36 50.34683 14.79571 36768 ft 502 kts 15°
2026-05-06 19:36 50.41314 14.82951 36769 ft 501 kts 15°
2026-05-06 19:37 50.47915 14.86312 36774 ft 501 kts 14°
2026-05-06 19:37 50.54623 14.89277 36774 ft 500 kts 13°
2026-05-06 19:38 50.61330 14.92118 36766 ft 501 kts 12°
2026-05-06 19:38 50.68009 14.94978 36781 ft 501 kts 13°
2026-05-06 19:39 50.74741 14.97877 36771 ft 500 kts 13°
2026-05-06 19:39 50.81416 15.00767 36781 ft 501 kts 13°
2026-05-06 19:40 50.88159 15.03700 36791 ft 500 kts 12°
2026-05-06 19:40 50.94845 15.06613 36787 ft 502 kts 13°
2026-05-06 19:41 51.01581 15.09555 36788 ft 500 kts 12°
2026-05-06 19:41 51.08264 15.12271 36805 ft 499 kts 11°
2026-05-06 19:42 51.15010 15.14936 36792 ft 499 kts 11°
2026-05-06 19:42 51.21737 15.17621 36805 ft 499 kts 11°
2026-05-06 19:43 51.28430 15.20315 36812 ft 499 kts 11°
2026-05-06 19:43 51.35155 15.23040 36803 ft 498 kts 11°
2026-05-06 19:44 51.41852 15.25759 36812 ft 499 kts 11°
2026-05-06 19:44 51.48556 15.28495 36812 ft 498 kts 11°
2026-05-06 19:45 51.55268 15.31239 36820 ft 498 kts 11°
2026-05-06 19:45 51.61948 15.33981 36822 ft 497 kts 11°
2026-05-06 19:46 51.68605 15.36719 36821 ft 497 kts 11°
2026-05-06 19:46 51.75308 15.39486 36818 ft 497 kts 11°
2026-05-06 19:47 51.81951 15.42237 36813 ft 496 kts 11°
2026-05-06 19:47 51.88618 15.45004 36815 ft 496 kts 11°
2026-05-06 19:48 51.95308 15.47792 36815 ft 495 kts 10°
2026-05-06 19:48 52.01949 15.50568 36821 ft 496 kts 10°
2026-05-06 19:49 52.08594 15.53350 36807 ft 496 kts 10°
2026-05-06 19:49 52.15312 15.56165 36831 ft 497 kts 10°
2026-05-06 19:50 52.21946 15.58954 36832 ft 496 kts 10°
2026-05-06 19:50 52.28614 15.61771 36822 ft 496 kts 10°
2026-05-06 19:51 52.35273 15.64597 36834 ft 497 kts 11°
2026-05-06 19:51 52.41938 15.67456 36813 ft 497 kts 12°
2026-05-06 19:52 52.48646 15.70347 36828 ft 497 kts 12°
2026-05-06 19:52 52.55294 15.73204 36831 ft 497 kts 12°
2026-05-06 19:53 52.61944 15.76064 36841 ft 497 kts 11°
2026-05-06 19:53 52.68642 15.78950 36830 ft 497 kts 11°
2026-05-06 19:54 52.75290 15.81824 36835 ft 497 kts 11°
2026-05-06 19:54 52.81961 15.84716 36837 ft 497 kts 12°
2026-05-06 19:55 52.88614 15.87611 36844 ft 497 kts 12°
2026-05-06 19:55 52.95316 15.90538 36850 ft 498 kts 12°
2026-05-06 19:56 53.01976 15.93456 36849 ft 498 kts 12°
2026-05-06 19:56 53.08644 15.96388 36838 ft 498 kts 12°
2026-05-06 19:57 53.15332 15.99328 36851 ft 498 kts 12°
2026-05-06 19:57 53.22038 16.02284 36842 ft 497 kts 12°
2026-05-06 19:58 53.28706 16.05241 37047 ft 497 kts 12°
2026-05-06 19:58 53.32030 16.06718 36945 ft 495 kts 12°
2026-05-06 19:58 53.35325 16.08186 36895 ft 495 kts 12°
2026-05-06 19:59 53.41988 16.11159 36865 ft 495 kts 12°
2026-05-06 19:59 53.48632 16.14135 36846 ft 496 kts 12°
2026-05-06 20:00 53.55272 16.17117 36858 ft 496 kts 11°
2026-05-06 20:00 53.61945 16.20126 36858 ft 495 kts 12°
2026-05-06 20:01 53.68552 16.23116 36868 ft 495 kts 12°
2026-05-06 20:01 53.75163 16.26117 36875 ft 495 kts 12°
2026-05-06 20:02 53.81820 16.29146 36875 ft 494 kts 12°
2026-05-06 20:02 53.88438 16.32171 36880 ft 494 kts 12°
2026-05-06 20:03 53.95056 16.35202 36880 ft 494 kts 12°
2026-05-06 20:03 54.01644 16.38232 36875 ft 495 kts 12°
2026-05-06 20:04 54.08297 16.41301 36891 ft 495 kts 12°
2026-05-06 20:04 54.14905 16.44354 36892 ft 494 kts 11°
2026-05-06 20:05 54.21508 16.47412 36905 ft 494 kts 11°
2026-05-06 20:05 54.28145 16.50499 36911 ft 493 kts 11°
2026-05-06 20:06 54.34756 16.53588 36912 ft 493 kts 11°
2026-05-06 20:06 54.41342 16.56677 36919 ft 493 kts 12°
2026-05-06 20:07 54.47963 16.59793 36920 ft 493 kts 11°
2026-05-06 20:07 54.54547 16.62902 36923 ft 493 kts 11°
2026-05-06 20:08 54.61123 16.66022 36925 ft 493 kts 12°
2026-05-06 20:08 54.67711 16.69185 36928 ft 492 kts 12°
2026-05-06 20:09 54.74277 16.72334 36933 ft 492 kts 12°
2026-05-06 20:09 54.80837 16.75479 36931 ft 492 kts 12°
2026-05-06 20:10 54.87418 16.78641 36933 ft 491 kts 12°
2026-05-06 20:10 54.94014 16.81819 36946 ft 491 kts 12°
2026-05-06 20:11 55.00437 16.84924 36949 ft 491 kts 12°
2026-05-06 20:11 55.06999 16.88108 36940 ft 491 kts 12°
2026-05-06 20:12 55.13579 16.91306 36943 ft 491 kts 12°
2026-05-06 20:12 55.20145 16.94503 36951 ft 491 kts 12°
2026-05-06 20:13 55.26703 16.97710 36951 ft 490 kts 12°
2026-05-06 20:13 55.33272 17.00942 36951 ft 491 kts 13°
2026-05-06 20:14 55.39836 17.04185 36950 ft 491 kts 12°
2026-05-06 20:14 55.46453 17.07464 36951 ft 491 kts 13°
2026-05-06 20:15 55.52991 17.10719 36965 ft 491 kts 12°
2026-05-06 20:15 55.59544 17.14068 36965 ft 492 kts 15°
2026-05-06 20:16 55.65923 17.18450 36961 ft 494 kts 22°
2026-05-06 20:16 55.72030 17.24103 36967 ft 496 kts 27°
2026-05-06 20:17 55.78012 17.30113 36965 ft 496 kts 27°
2026-05-06 20:17 55.83968 17.36105 36974 ft 496 kts 27°
2026-05-06 20:18 55.89986 17.42151 36968 ft 496 kts 27°
2026-05-06 20:18 55.95970 17.48170 36975 ft 496 kts 27°
2026-05-06 20:19 56.02012 17.54269 36976 ft 496 kts 27°
2026-05-06 20:19 56.08014 17.60349 36974 ft 496 kts 27°
2026-05-06 20:20 56.13988 17.66410 36975 ft 495 kts 28°
2026-05-06 20:20 56.19974 17.72521 36973 ft 495 kts 28°
2026-05-06 20:21 56.25946 17.78645 36978 ft 495 kts 28°
2026-05-06 20:21 56.31875 17.84739 36980 ft 495 kts 28°
2026-05-06 20:22 56.37880 17.90930 36977 ft 496 kts 28°
2026-05-06 20:22 56.43853 17.97112 36985 ft 496 kts 28°
2026-05-06 20:23 56.49795 18.03286 36986 ft 495 kts 28°
2026-05-06 20:23 56.55751 18.09495 36992 ft 495 kts 28°
2026-05-06 20:24 56.61704 18.15725 36993 ft 495 kts 28°
2026-05-06 20:24 56.67638 18.21957 36993 ft 495 kts 28°
2026-05-06 20:25 56.73549 18.28189 36993 ft 494 kts 28°
2026-05-06 20:25 56.79506 18.34492 36998 ft 494 kts 28°
2026-05-06 20:26 56.85406 18.40757 36999 ft 494 kts 28°
2026-05-06 20:26 56.91325 18.47066 37002 ft 495 kts 28°
2026-05-06 20:27 56.97257 18.53412 37002 ft 495 kts 28°
2026-05-06 20:27 57.03223 18.59820 37004 ft 495 kts 28°
2026-05-06 20:28 57.09153 18.66213 37002 ft 495 kts 29°
2026-05-06 20:28 57.15076 18.72631 37007 ft 495 kts 29°
2026-05-06 20:29 57.21012 18.79073 37009 ft 495 kts 29°
2026-05-06 20:29 57.26895 18.85481 37001 ft 495 kts 29°
2026-05-06 20:30 57.35789 18.95222 37005 ft 496 kts 29°
2026-05-06 20:31 57.41726 19.01756 37010 ft 496 kts 29°
2026-05-06 20:31 57.47633 19.08282 37013 ft 497 kts 29°
2026-05-06 20:32 57.53551 19.14845 37014 ft 497 kts 29°
2026-05-06 20:32 57.59430 19.21391 37016 ft 497 kts 28°
2026-05-06 20:33 57.65334 19.27988 37014 ft 497 kts 29°
2026-05-06 20:33 57.71275 19.34652 37017 ft 497 kts 28°
2026-05-06 20:34 57.77174 19.41293 37013 ft 497 kts 28°
2026-05-06 20:34 57.83042 19.47928 37015 ft 497 kts 28°
2026-05-06 20:35 57.88963 19.54646 37017 ft 497 kts 28°
2026-05-06 20:35 57.94882 19.61386 37019 ft 498 kts 29°
2026-05-06 20:36 58.00773 19.68132 37016 ft 498 kts 30°
2026-05-06 20:36 58.06656 19.74920 37016 ft 498 kts 30°
2026-05-06 20:37 58.12553 19.81727 37017 ft 498 kts 30°
2026-05-06 20:37 58.18448 19.88519 37019 ft 498 kts 29°
2026-05-06 20:38 58.20820 19.91263 37019 ft 498 kts 29°
2026-05-06 20:38 58.26708 19.98105 37019 ft 498 kts 29°
2026-05-06 20:39 58.32605 20.04990 37022 ft 499 kts 29°
2026-05-06 20:39 58.38486 20.11885 37016 ft 500 kts 29°
2026-05-06 20:40 58.44395 20.18845 37021 ft 500 kts 29°
2026-05-06 20:40 58.50295 20.25820 37022 ft 500 kts 29°
2026-05-06 20:41 58.56157 20.32779 37025 ft 501 kts 29°
2026-05-06 20:41 58.62087 20.39848 37025 ft 501 kts 29°
2026-05-06 20:42 58.67946 20.46860 37026 ft 501 kts 29°
2026-05-06 20:42 58.73880 20.53989 37024 ft 501 kts 29°
2026-05-06 20:43 58.79734 20.61054 37030 ft 502 kts 29°
2026-05-06 20:43 58.85646 20.68225 37039 ft 502 kts 30°
2026-05-06 20:44 58.91534 20.75419 37037 ft 502 kts 30°
2026-05-06 20:44 58.97391 20.82583 37038 ft 503 kts 30°
2026-05-06 20:45 59.02978 20.90820 37038 ft 506 kts 41°
2026-05-06 20:45 59.07627 21.00916 37030 ft 505 kts 54°
2026-05-06 20:45 59.09570 21.06551 36928 ft 497 kts 58°
2026-05-06 20:46 59.11379 21.12289 36568 ft 495 kts 59°
2026-05-06 20:46 59.13138 21.17975 36122 ft 494 kts 59°
2026-05-06 20:46 59.14898 21.23680 35716 ft 492 kts 59°
2026-05-06 20:46 59.16655 21.29369 35311 ft 490 kts 59°
2026-05-06 20:47 59.18392 21.34987 34774 ft 490 kts 59°
2026-05-06 20:47 59.20157 21.40687 34115 ft 491 kts 59°
2026-05-06 20:47 59.21916 21.46375 33369 ft 492 kts 59°
2026-05-06 20:47 59.23684 21.52101 32603 ft 493 kts 59°
2026-05-06 20:48 59.25426 21.57755 31839 ft 493 kts 59°
2026-05-06 20:48 59.27178 21.63522 31018 ft 495 kts 60°
2026-05-06 20:48 59.28858 21.69313 30214 ft 495 kts 62°
2026-05-06 20:48 59.30528 21.75193 29634 ft 489 kts 62°
2026-05-06 20:49 59.32148 21.80927 29104 ft 484 kts 62°
2026-05-06 20:49 59.33754 21.86617 28513 ft 480 kts 62°
2026-05-06 20:49 59.35364 21.92313 27898 ft 476 kts 62°
2026-05-06 20:49 59.36946 21.97913 27309 ft 472 kts 62°
2026-05-06 20:50 59.38540 22.03564 26706 ft 467 kts 61°
2026-05-06 20:50 59.40084 22.09052 26106 ft 464 kts 61°
2026-05-06 20:50 59.41650 22.14628 25512 ft 459 kts 61°
2026-05-06 20:50 59.43167 22.20044 24965 ft 455 kts 61°
2026-05-06 20:51 59.44686 22.25478 24390 ft 451 kts 60°
2026-05-06 20:51 59.46169 22.30796 23833 ft 448 kts 61°
2026-05-06 20:51 59.47654 22.36125 23325 ft 444 kts 60°
2026-05-06 20:51 59.49125 22.41419 22837 ft 440 kts 60°
2026-05-06 20:52 59.50581 22.46671 22348 ft 435 kts 60°
2026-05-06 20:52 59.52027 22.51899 21878 ft 431 kts 60°
2026-05-06 20:52 59.53456 22.57082 21400 ft 426 kts 60°
2026-05-06 20:52 59.54848 22.62138 20920 ft 423 kts 60°
2026-05-06 20:53 59.56255 22.67264 20446 ft 419 kts 61°
2026-05-06 20:53 59.57637 22.72317 19964 ft 415 kts 61°
2026-05-06 20:53 59.58983 22.77256 19510 ft 411 kts 61°
2026-05-06 20:53 59.60313 22.82145 19058 ft 407 kts 61°
2026-05-06 20:54 59.61652 22.87069 18595 ft 403 kts 61°
2026-05-06 20:54 59.62958 22.91879 18153 ft 399 kts 61°
2026-05-06 20:54 59.64251 22.96651 17717 ft 395 kts 61°
2026-05-06 20:54 59.65547 23.01440 17297 ft 391 kts 61°
2026-05-06 20:55 59.66814 23.06135 16876 ft 387 kts 61°
2026-05-06 20:55 59.68059 23.10759 16443 ft 383 kts 61°
2026-05-06 20:55 59.69315 23.15425 16016 ft 379 kts 61°
2026-05-06 20:55 59.70533 23.19970 15595 ft 375 kts 61°
2026-05-06 20:56 59.71743 23.24489 15130 ft 373 kts 61°
2026-05-06 20:56 59.72948 23.29003 14601 ft 373 kts 61°
2026-05-06 20:56 59.74164 23.33561 14146 ft 369 kts 61°
2026-05-06 20:56 59.75340 23.37980 13740 ft 365 kts 60°
2026-05-06 20:57 59.76524 23.42441 13334 ft 360 kts 60°
2026-05-06 20:57 59.77670 23.46761 12940 ft 355 kts 61°
2026-05-06 20:57 59.78815 23.51090 12544 ft 350 kts 61°
2026-05-06 20:57 59.79925 23.55295 12160 ft 344 kts 61°
2026-05-06 20:58 59.81024 23.59465 11778 ft 339 kts 61°
2026-05-06 20:58 59.82106 23.63576 11400 ft 334 kts 61°
2026-05-06 20:58 59.83177 23.67661 11014 ft 330 kts 62°
2026-05-06 20:58 59.84214 23.71634 10642 ft 325 kts 62°
2026-05-06 20:59 59.85256 23.75628 10262 ft 321 kts 62°
2026-05-06 20:59 59.86263 23.79484 10048 ft 310 kts 62°
2026-05-06 20:59 59.87235 23.83217 10008 ft 295 kts 62°
2026-05-06 20:59 59.88166 23.86796 9694 ft 291 kts 62°
2026-05-06 21:00 59.89084 23.90327 9368 ft 287 kts 62°
2026-05-06 21:00 59.90001 23.93856 9048 ft 283 kts 62°
2026-05-06 21:00 59.90899 23.97323 8741 ft 279 kts 63°
2026-05-06 21:00 59.91773 24.00704 8438 ft 276 kts 63°
2026-05-06 21:01 59.92645 24.04077 8145 ft 272 kts 63°
2026-05-06 21:01 59.93509 24.07425 7845 ft 268 kts 63°
2026-05-06 21:01 59.94346 24.10678 7554 ft 265 kts 63°
2026-05-06 21:01 59.95184 24.13938 7263 ft 262 kts 63°
2026-05-06 21:02 59.95999 24.17112 6974 ft 259 kts 64°
2026-05-06 21:02 59.96814 24.20291 6685 ft 256 kts 64°
2026-05-06 21:02 59.97655 24.23371 6393 ft 254 kts 58°
2026-05-06 21:02 59.98759 24.26138 6096 ft 253 kts 46°
2026-05-06 21:03 60.00048 24.28507 5813 ft 252 kts 42°
2026-05-06 21:03 60.01373 24.30783 5528 ft 250 kts 41°
2026-05-06 21:03 60.02686 24.33027 5248 ft 247 kts 41°
2026-05-06 21:03 60.03985 24.35256 4968 ft 245 kts 41°
2026-05-06 21:04 60.05270 24.37476 4693 ft 244 kts 41°
2026-05-06 21:04 60.06539 24.39676 4417 ft 242 kts 41°
2026-05-06 21:04 60.07809 24.41886 4145 ft 241 kts 41°
2026-05-06 21:04 60.09077 24.44055 3862 ft 240 kts 36°
2026-05-06 21:05 60.10457 24.45916 3593 ft 238 kts 36°
2026-05-06 21:05 60.11736 24.47973 3323 ft 236 kts 43°
2026-05-06 21:05 60.12922 24.50168 3138 ft 229 kts 44°
2026-05-06 21:05 60.14030 24.52331 3115 ft 215 kts 45°
2026-05-06 21:06 60.15043 24.54424 3087 ft 202 kts 47°
2026-05-06 21:06 60.15970 24.56414 3051 ft 189 kts 48°
2026-05-06 21:06 60.16875 24.58405 3039 ft 199 kts 48°
2026-05-06 21:06 60.17815 24.60496 2971 ft 201 kts 48°
2026-05-06 21:07 60.18740 24.62564 2885 ft 199 kts 48°
2026-05-06 21:07 60.19665 24.64634 2787 ft 197 kts 47°
2026-05-06 21:07 60.20568 24.66656 2578 ft 193 kts 48°
2026-05-06 21:07 60.21448 24.68628 2380 ft 190 kts 48°
2026-05-06 21:08 60.22315 24.70559 2305 ft 179 kts 48°
2026-05-06 21:08 60.23125 24.72355 2353 ft 177 kts 48°
2026-05-06 21:08 60.23959 24.74200 2320 ft 168 kts 48°
2026-05-06 21:08 60.24720 24.75881 2184 ft 157 kts 48°
2026-05-06 21:09 60.25456 24.77506 1967 ft 156 kts 47°
2026-05-06 21:09 60.26168 24.79078 1767 ft 149 kts 47°
2026-05-06 21:09 60.26841 24.80565 1536 ft 136 kts 47°
2026-05-06 21:09 60.27449 24.81908 1331 ft 127 kts 47°
2026-05-06 21:10 60.28041 24.83214 1166 ft 127 kts 47°
2026-05-06 21:10 60.28643 24.84540 994 ft 128 kts 47°
2026-05-06 21:10 60.29240 24.85856 824 ft 128 kts 47°
2026-05-06 21:10 60.29843 24.87176 648 ft 129 kts 46°
2026-05-06 21:11 60.30450 24.88510 477 ft 129 kts 47°
2026-05-06 21:11 60.31059 24.89846 295 ft 129 kts 47°
2026-05-06 21:11 60.31654 24.91172 191 ft 121 kts 47°
2026-05-06 21:11 60.32119 24.92198 190 ft 75 kts 47°
2026-05-06 21:12 60.32417 24.92839 190 ft 58 kts 48°
2026-05-06 21:12 60.32674 24.93416 190 ft 48 kts 47°
2026-05-06 21:12 60.32868 24.93845 190 ft 36 kts 48°
2026-05-06 21:12 60.33025 24.94191 190 ft 30 kts 47°
2026-05-06 21:13 60.33119 24.94513 190 ft 25 kts 89°
2026-05-06 21:13 60.33112 24.94816 190 ft 16 kts 92°
2026-05-06 21:13 60.33107 24.95046 190 ft 16 kts 92°
2026-05-06 21:13 60.33143 24.95251 191 ft 13 kts 43°
2026-05-06 21:14 60.33207 24.95402 190 ft 14 kts 70°
2026-05-06 21:14 60.33173 24.95587 190 ft 15 kts 137°
2026-05-06 21:14 60.33090 24.95737 190 ft 16 kts 138°
2026-05-06 21:14 60.32991 24.95865 191 ft 17 kts 150°
2026-05-06 21:15 60.32885 24.95988 191 ft 18 kts 149°
2026-05-06 21:15 60.32775 24.96117 191 ft 18 kts 151°
2026-05-06 21:15 60.32661 24.96248 191 ft 19 kts 150°
2026-05-06 21:15 60.32544 24.96384 191 ft 19 kts 150°
2026-05-06 21:16 60.32427 24.96523 191 ft 19 kts 150°
2026-05-06 21:16 60.32305 24.96664 191 ft 20 kts 150°
2026-05-06 21:16 60.32210 24.96776 191 ft 12 kts 149°
2026-05-06 21:16 60.32135 24.96864 191 ft 12 kts 150°
2026-05-06 21:17 60.32059 24.96951 191 ft 12 kts 150°
2026-05-06 21:17 60.31995 24.97018 191 ft 6 kts 152°
2026-05-06 21:17 60.31968 24.97020 191 ft 3 kts 223°
2026-05-06 21:17 60.31956 24.96964 191 ft 3 kts 246°
2026-05-06 21:18 60.31948 24.96929 191 ft 1 kts 244°